Location: Fleischmann Planetarium and Science Center
(39.5456°N, 119.8190°W)
Time: 04:59:29
(UTC-08:00)

Daily predictions for brighter satellites

Satellite Brightness Start Highest point End
(mag) Time Altitude Azimuth Time Altitude Azimuth Time Altitude Azimuth
CZ-3 R/B 4.5 01:12:40 10° W 02:30:33 48° SSE 02:39:08 10° SE
Cosmos 2237 Rocket 3.2 04:18:04 41° SE 04:18:04 41° SE 04:21:51 10° SE
SL-16 R/B 3.9 04:17:39 25° NNE 04:19:20 29° ENE 04:24:12 10° ESE
USA 229 DEB 4.5 04:21:03 40° N 04:22:59 48° NE 04:29:56 10° ESE
Cosmos 2297 Rocket 2.8 04:28:51 53° ENE 04:28:51 53° ENE 04:33:23 10° NNE
ISS 0.1 04:38:40 11° ENE 04:38:40 11° ENE 04:38:53 10° ENE
Cosmos 540 Rocket 3.9 04:38:28 57° E 04:38:28 57° E 04:43:02 10° SSE
Cosmos 2227 Rocket 3.2 04:42:32 36° NNE 04:42:32 36° NNE 04:45:49 10° NNE
OAO 2 Rocket 4.2 04:43:00 42° SE 04:43:00 42° SE 04:46:46 10° E
CZ-3 Stage 3 3.2 04:44:39 29° SSE 04:44:42 29° SSE 04:52:11 10° ESE
Cosmos 1725 Rocket 3.9 04:44:47 10° S 04:51:01 88° W 04:57:21 10° N
Cosmos 1864 Rocket 4.3 04:45:22 10° S 04:51:29 88° W 04:57:40 10° N
Meteor 1-21 Rocket 4.1 04:53:04 74° SSW 04:53:04 74° SSW 04:58:10 10° S
Cosmos 1980 4.3 05:04:36 41° SSW 05:04:36 41° SSW 05:08:34 10° S
BREEZE-M DEB (TANK) 3.9 05:04:46 49° SSW 05:04:46 49° SSW 05:07:38 10° SSE
BREEZE-M DEB (TANK) 4.4 04:54:54 29° WNW 05:04:45 86° SW 05:09:53 10° SE
Cosmos 2082 4.1 05:09:35 44° NNW 05:09:35 44° NNW 05:14:04 10° NNE
USA 234 4.3 05:04:57 10° E 05:10:54 38° NNE 05:14:46 20° NNW
Cosmos 2333 Rocket 3.4 05:14:24 25° SW 05:14:24 25° SW 05:17:15 10° SSW
Cosmos 1461 4.4 05:16:58 23° S 05:16:58 23° S 05:18:47 10° S
Ariane Rocket 3.8 05:10:22 10° NNE 05:15:21 51° E 05:20:17 10° S
Cosmos 1328 4.1 05:21:08 21° N 05:23:40 66° E 05:27:37 10° SSE
Cosmos 1743 Rocket 3.4 05:23:57 54° NW 05:24:45 67° W 05:29:06 10° S
DMSP B5D1-3 4.5 05:23:02 10° SSE 05:28:10 86° ENE 05:33:19 10° NNW
TELKOM 3 4.3 05:29:53 44° SE 05:29:53 44° SE 05:31:58 10° ENE
Cosmos 2058 4.1 05:25:52 10° N 05:29:48 42° E 05:33:43 10° SSE
Cosmos 2219 Rocket 4.3 05:34:47 10° SW 05:34:47 10° SW 05:34:50 10° SW
Cosmos 1842 Rocket 3.4 05:29:00 10° SSW 05:33:17 67° W 05:37:38 10° N
COSMO-SKYMED 1 2.5 05:29:36 10° S 05:33:53 60° W 05:35:37 34° NW
Cosmos 2233 Rocket 4.0 05:35:24 10° SSW 05:41:31 57° W 05:47:43 10° N
CZ-2C R/B 3.9 05:39:57 10° NNE 05:44:11 35° E 05:48:21 10° SSE
Cosmos 968 Rocket 3.5 05:42:12 10° SSW 05:47:23 60° WNW 05:52:37 10° NNE
NOAA 6 4.5 05:42:58 10° N 05:47:43 37° WNW 05:52:28 10° SW
Cosmos 2151 2.8 05:43:36 10° N 05:47:51 83° W 05:52:05 10° S
Cosmos 2227 4.4 05:44:43 10° SSW 05:50:18 74° ESE 05:55:55 10° NNE
Cosmos 1500 Rocket 3.8 05:49:00 17° NNW 05:52:10 46° W 05:56:25 10° SSW
GPS 2-05 Rocket1 4.2 05:50:39 19° SW 05:52:20 31° SSE 05:55:21 10° ESE
CSL-04 Rocket 3.5 05:47:33 10° NNE 05:52:53 86° WNW 05:58:10 10° SSW
Tiangong 2 4.3 05:54:31 10° SSE 05:55:30 11° SE 05:56:30 10° ESE
Cosmos 1703 4.3 05:51:42 10° N 05:55:30 47° E 05:59:18 10° SSE
Cosmos 773 Rocket 4.3 05:52:02 10° NNW 05:57:19 72° ENE 06:02:36 10° SSE
Cosmos 2034 Rocket 4.4 05:53:02 10° S 05:59:06 65° E 06:05:17 10° NNE
Cosmos 2237 Rocket 3.6 05:59:58 18° WSW 05:59:58 18° WSW 06:03:23 10° SW
SL-16 R/B 2.6 05:59:36 17° NW 06:03:32 40° WSW 06:08:46 10° S
Cosmos 1340 Rocket 2.6 06:01:47 10° NNW 06:05:42 74° W 06:09:38 10° S
Aureole 2 Rocket 4.1 06:05:06 22° W 06:05:47 23° W 06:09:04 10° SSW
Sich 1 4.1 06:07:19 10° N 06:11:34 48° E 06:15:44 10° SSE
Cosmos 2297 Rocket 3.5 06:10:45 17° WNW 06:12:18 19° NW 06:16:19 10° N
SJ-12 4.0 06:08:20 10° NNE 06:12:26 82° E 06:16:30 10° S
Cosmos 1633 Rocket 4.3 06:08:17 10° N 06:12:28 43° E 06:16:35 10° SSE
Cosmos 1184 Rocket 4.1 06:10:01 10° N 06:13:12 43° ENE 06:16:22 10° SSE
SPOT 3 Rocket 4.5 06:08:07 10° NNE 06:13:13 53° E 06:18:18 10° S
ISS -3.4 06:11:20 22° WNW 06:13:17 73° SW 06:16:31 10° SE
Cosmos 1271 Rocket 3.0 06:09:43 10° SSW 06:13:22 42° WNW 06:17:01 10° N
USA 229 DEB 4.4 06:08:32 15° NW 06:13:47 37° WSW 06:20:15 10° S
USA 229 4.4 06:08:36 15° NW 06:13:53 37° WSW 06:20:23 10° S
Meteor 1-11 4.4 06:10:53 10° NNW 06:16:33 54° W 06:22:10 10° S
Cosmos 1513 Rocket 4.5 06:11:34 10° S 06:17:49 80° W 06:24:12 10° N
Meteor 1-28 Rocket 4.2 06:14:40 10° SSW 06:17:51 26° W 06:20:40 12° NW
Cosmos 1777 Rocket 4.0 06:12:49 10° SSW 06:17:58 61° WNW 06:23:08 10° NNE
SL-14 R/B 4.0 06:14:33 10° NNW 06:18:13 33° W 06:21:52 10° SSW
DELTA 2 R/B (1) 4.4 06:13:18 10° SW 06:18:39 51° SSE 06:24:02 10° E
Meteor 1-4 Rocket 4.0 06:18:24 10° WSW 06:21:00 18° WNW 06:23:38 10° NNW
Cosmos 1484 Rocket 4.4 06:20:53 10° NNE 06:24:42 40° E 06:28:27 10° SSE
Cosmos 2227 Rocket 3.9 06:24:25 12° NW 06:25:12 12° NW 06:27:19 10° NNW
IDEFIX/ARIANE 42P 2.6 06:21:06 10° NNE 06:26:23 84° WNW 06:31:39 10° SSW
OAO 2 Rocket 4.0 06:21:58 11° W 06:26:28 44° S 06:31:09 10° ESE
NOSS 3-1 (A) 4.2 06:20:10 10° NW 06:27:55 88° WSW 06:36:21 10° SSE
IRS-1A Rocket 4.4 06:22:07 10° N 06:27:59 66° WNW 06:33:44 10° SSW
YAOGAN 1 2.6 06:25:17 10° NNE 06:29:39 85° ESE 06:33:58 10° SSW
Cosmos 1464 Rocket 4.2 06:24:30 10° SSW 06:30:39 52° W 06:36:48 10° N
CZ-4 R/B 1.4 06:28:18 10° N 06:32:16 57° WNW 06:36:17 10° SSW
ERBS 2.3 06:30:40 11° NW 06:33:59 74° SW 06:37:23 10° SE
ATLAS 2AS CENTAUR R/B 4.1 06:29:06 10° NNW 06:36:37 40° NE 06:43:41 10° ESE
Coronas F rocket 1.4 06:34:43 10° N 06:37:06 62° E 06:39:28 10° SSE
Cosmos 1626 2.1 06:33:34 10° NNW 06:37:16 64° W 06:40:57 10° S
Meteor 1-29 3.5 06:34:47 10° SSE 06:38:14 63° ENE 06:41:42 10° N
PSLV R/B 3.3 06:35:47 10° WSW 06:39:11 84° SSE 06:42:32 10° ENE
Cosmos 1666 Rocket 3.6 06:38:19 10° NNW 06:42:45 68° W 06:47:11 10° S
Cosmos 2344 4.0 06:36:51 10° SSW 06:44:30 76° ESE 06:52:56 10° NE
Cosmos 1943 3.5 06:41:43 10° NNW 06:47:27 77° ENE 06:53:08 10° SSE
Cosmos 2221 3.5 06:46:13 10° SW 06:49:50 25° WNW 06:53:26 10° NNW
Cosmos 923 Rocket 4.2 06:45:42 10° NNW 06:50:48 54° WSW 06:55:54 10° S
USA 234 3.4 06:47:03 10° SE 06:53:36 72° SW 07:00:10 10° NW
